Weather Service Report


173 
ASUS41 KAKQ 270015
RWRAKQ

REGIONAL WEATHER ROUNDUP
NATIONAL WEATHER SERVICE WAKEFIELD VA
800 PM EDT SUN MAR 26 2017

Note: "fair" indicates few or no clouds below 12,000 feet with no
significant weather and/or obstructions to visibility. * = Denotes
station may not report precipitation (e.g., rain,snow,etc.),
thunder or fog.

VAZ042-051-052>054-056-270100-
NORTHERN VIRGINIA
  
CITY           SKY/WX    TMP DP  RH WIND       PRES   REMARKS
WASH NATIONAL  CLOUDY    48  47  96 E10       30.24S                  
DULLES         CLOUDY    47  44  90 E6        30.23S                  
FORT BELVOIR   CLOUDY    48  45  87 E9        30.23S                  
QUANTICO       CLOUDY    51  48  89 E8        30.23F                  
FREDERICKSBRG* CLOUDY    51  49  90 NE5       30.21S                  
STAFFORD*      CLOUDY    49  48  97 E9        30.26S FOG              
WARRENTON      CLOUDY    51  45  79 E3        30.21F                  
CULPEPER*      CLOUDY    51  47  87 CALM      30.22F                  
MANASSAS*      CLOUDY    49  45  86 E7        30.22F                  
LEESBURG*      CLOUDY    48  46  93 SE9       30.23S                  
WINCHESTER     CLOUDY    45  43  93 SE8       30.20S FOG              
FRONT ROYAL*   CLOUDY    48  45  87 E7        30.18R                  
LURAY*         CLOUDY    54  50  87 NE7       30.15S                  
$$

VAZ048-049-060>072-079>083-270100-
CENTRAL AND SOUTH CENTRAL VIRGINIA
  
CITY           SKY/WX    TMP DP  RH WIND       PRES   REMARKS
RICHMOND       MOCLDY    59  52  77 E12       30.17S                  
CHESTERFIELD*  FAIR      63  41  45 SE10      30.17S                  
PETERSBURG*    MOCLDY    64  52  65 E7        30.16S                  
HANOVER        CLEAR     57  49  74 E7        30.19S                  
TAPPAHANNOCK*  MOCLDY    54  45  72 E7        30.21F                  
QUINTON*       FAIR      57  54  87 E5        30.18S                  
CHARLOTTSVILLE CLOUDY    52  48  86 NE9       30.19S FOG              
GORDONSVILLE*  CLOUDY    51  48  90 NE5       30.19S                  
ORANGE*        CLOUDY    50  46  87 NE7       30.22S                  
LOUISA*        CLOUDY    57  52  82 NE6       30.18S                  
BUMPASS*       CLOUDY    53  50  90 CALM      30.19S                  
FARMVILLE*     RAIN      63  58  82 N7        30.14R                  
CREWE*         CLOUDY    68  51  54 S6        30.13R                  
FORT PICKETT*  FAIR      67  43  41 S5        30.13S                  
CHASE CITY*    CLOUDY    69  48  46 SE5       30.13R                  
CLARKSVILLE*   CLOUDY    70  50  49 S3        30.12S                  
SOUTH HILL*    CLEAR     67  52  57 SE3       30.19F                  
LAWRENCEVILLE* MOCLDY    67  50  53 SE3       30.15S                  
EMPORIA*       CLEAR     64  52  63 SE6       30.18R                  
$$

VAZ088>098-270100-
SOUTHEAST VIRGINIA
  
CITY           SKY/WX    TMP DP  RH WIND       PRES   REMARKS
NORFOLK        MOCLDY    56  50  80 E5        30.19S                  
VIRGINIA BEACH MOCLDY    53  48  83 E3        30.20S                  
NORFOLK NAVAL  MOCLDY    53  48  83 E8        30.21S                  
WEST POINT*    PTCLDY    55  50  82 NE7       30.21S                  
SALUDA*        FAIR      51  50  98 NE6       30.22R                  
NEWPORT NEWS   PTCLDY    54  50  86 E9        30.20S                  
LANGLEY AFB    PTCLDY    53  51  90 E7        30.20R                  
FORT EUSTIS    PTCLDY    58  51  78 E7        30.17R                  
WILLIAMSBURG*  PTCLDY    57  52  82 CALM      30.20S                  
HR EXEC AP*    FAIR      64  52  63 SE9       30.16S                  
FRANKLIN*      CLEAR     66  53  62 S7        30.18R                  
US460-WAKEFLD  CLEAR     60  54  80 CALM      30.18R                  
$$

VAZ020-022-025-037-045-270100-
WEST CENTRAL AND SOUTHWEST VIRGINIA
  
CITY           SKY/WX    TMP DP  RH WIND       PRES   REMARKS
STAUNTON*      CLOUDY    55  49  82 S6        30.17R                  
WAYNESBORO*    CLOUDY    51  50  95 SE13G21   30.15S                  
HOT SPRINGS VA LGT RAIN  52  52 100 S13G21    30.15S VSB 1/4          
LYNCHBURG      CLOUDY    58  56  93 N6        30.16F                  
DANVILLE       CLOUDY    60  60 100 CALM      30.14S                  
SOUTH BOSTON*  CLOUDY    70  47  44 CALM      30.13R                  
MARTINSVILLE   FOG       56  55  97 CALM      30.15S VSB 1/2          
ROANOKE        CLOUDY    60  57  89 E7        30.15S                  
BLACKSBURG     CLOUDY    60  55  84 SE3       30.16R                  
DUBLIN*        CLOUDY    61  55  79 S10       30.13R                  
MARION*        MOCLDY    63  53  70 S10G21    30.11R                  
HILLSVILLE*    CLOUDY    57  55  95 S3        30.13R                  
RICHLANDS*     FAIR      58  55  91 SE3       30.07S                  
WISE*          CLOUDY    61  50  67 S10G17    30.07R                  
ABINGDON*      CLOUDY    65  54  68 W3        30.06R                  
$$

MDZ021>025-VAZ099-100-270100-
SOUTHERN MARYLAND AND THE DELMARVA PENINSULA
  
CITY           SKY/WX    TMP DP  RH WIND       PRES   REMARKS
PATUXENT RIVER CLOUDY    48  48 100 E9        30.24S                  
BAY BRIDGE APT CLOUDY    46  45  93 E10       30.26F FOG              
LEONARDTOWN    CLOUDY    46  45  93 E6        30.25S                  
DOVER          CLOUDY    45  45 100 E14       30.27S FOG              
GEORGETOWN     CLOUDY    45  43  93 E12       30.28S FOG              
EASTON         CLOUDY    46  45  93 E7        30.30S FOG              
CAMBRIDGE      CLOUDY    46  45  93 VRB6G14   30.26S FOG              
SALISBURY      CLOUDY    46  46 100 E10       30.25S FOG              
OCEAN CITY     FOG       45  44  97 NE10      30.26F VSB 1            
WALLOPS ISLAND FOG       47  47 100 NE14      30.25S VSB 1/2          
ACCOMACK*      CLOUDY    49  47  95 E7        30.23S                  
$$

NCZ012>017-030>032-270100-
NORTH CENTRAL AND EASTERN NORTH CAROLINA
  
CITY           SKY/WX    TMP DP  RH WIND       PRES   REMARKS
ROANOKE RAPIDS MOCLDY    68  54  60 SE5       30.16R                  
RALEIGH        MOCLDY    71  50  47 SE8       30.14R                  
ELIZABETH CITY CLEAR     59  53  80 SE7       30.20S                  
AHOSKIE*         N/A     66  54  66 SE3       30.18S                  
EDENTON*       CLEAR     68  55  62 S8        30.19S                  
CURRITUCK*     CLEAR     61  54  75 SE6       30.21S                  
KILL DEVIL HLS NOT AVBL                                               
MANTEO         CLEAR     60  54  81 SE7       30.23S                  
CAPE HATTERAS  MOCLDY    67  57  70 SE3       30.22S                  
TARBORO*       NOT AVBL                                               
GOLDSBORO      CLEAR     69  52  53 S6        30.15R                  
WASHINGTON     PTCLDY    66  56  69 SE7       30.19R                  
GREENVILLE     CLEAR     70  52  52 S8        30.19R                  
NEW BERN       CLEAR     66  54  65 S5        30.20S                  
WILMINGTON     CLEAR     66  54  65 S5        30.18S                  
$$

VAZ048-270100-
ELSEWHERE
  
CITY           SKY/WX    TMP DP  RH WIND       PRES   REMARKS
HARRISBURG PA  CLOUDY    43  42  97 E12       30.25F FOG              
BALTIMORE      CLOUDY    46  46 100 E12       30.24F FOG              
ANNAPOLIS      CLOUDY    47  45  93 E10       30.25F FOG              
ANDREWS AFB    CLOUDY    46  45  95 E13       30.22F                  
PHILADELPHIA   CLOUDY    42  40  92 E14       30.32S                  
HENDERSON NC   CLEAR     66  48  51 S5        30.14R                  
GREENSBORO     MOCLDY    61  61 100 SE3       30.12S                  
ROCKY MOUNT    PTCLDY    67  53  61 CALM      30.16R                  
$$

VAZ100-270100-
MARINE
  
STATION/POSITION TIME  TEMP    WIND        PRES    WAVE   SWELL
                       AIR SEA DIR/SP/G            HT/PER HT/PER
                 (UTC) (F)     (DEG/KT/KT) (MB)    (FT/S) (FT/S)
CAPE MAY NJ      2348   43 45   70/  8/ 11 1024.8F
LEWES DE         2348   43 45   90/ 16/ 19 1025.0S
OCEAN-CITY-INLET 2348   44 45   70/  8/ 11 1025.1F
WACHAPREAGUE VA  2348   47 53   50/ 15/ 16 1023.4F
THOMAS POINT MD  0000   45 45  100/ 12/ 13   N/A
GOOSES REEF MD   0000   46 45  110/  8/ 12 1024.8    1/ 2
COVE POINT MD    2348   47     110/ 10/ 11 1024.6F
SOLOMONS ISLAND  2348   48 48   80/ 11/ 12   N/A
BISHOPS HEAD MD  2348   48 52   70/  9/ 11 1024.4R
PINEY POINT MD   2348          110/ 11/ 13   N/A
POTOMAC MD       2350   49      80/ 10/ 14 1023.1R
CAMBRIDGE MD     2348   46 47   60/  8/ 11 1024.0R
LEWISETTA VA     2348   50 51  100/ 10/ 12 1023.4F
RAPPAHANNOCK LGT 2348           70/  9/ 10 1023.5F
STINGRAY PT      2350   49      50/  6/  6 1023.1F
YORK RVR RNG VA  2348   51     110/  8/  9 1022.0F
YORKTOWN VA      2348   52 50   90/  8/  9 1022.4S
JAMESTOWN VA     2350   56      80/  8/ 12   N/A
DOMINION TERM VA 2348   51      70/ 14/ 17 1022.5S
KIPTOPEKE VA     2348      50   80/ 11/ 16   N/A
CHES BAY BRIDGE  2348   48 48   90/ 13/ 15 1022.7F
CAPE HENRY VA    2348   49      90/  8/ 10   N/A
WILLOUBY STN VA  2348   50     100/ 15/ 16 1023.2S
S CRANEY ISL VA  2348   58     100/  6/  8 1022.0F
CAPE HENRY BUOY  2342      51                N/A     3/ 7
CAPE CHARLES BUO 2351      49                N/A     3/ 6
OFFSHORE WE BUOY 2351      51                N/A     3/ 7
64NM E OF VA BCH 2350   56 51  100/  6/  6 1023.7R   3/ 7   3/ 7
DUCK PIER NC     2348   53 47  140/ 12/ 12 1022.8R
44100 DUCK FRF   2335      52                N/A     3/ 6
44056 DUCK FRF   2330      52                N/A     2/ 6
OREGON INLET NC  2348           80/  4/  6 1023.6R
HATTERAS NC      2348   68 60  170/  5/  7 1023.2R
DIAMOND SHLS NC  2350   70 76  150/ 10/ 14 1023.4R   3/ 8   3/ 8
CAPE LOOKOUT NC  0000   66     180/  5/  5 1022.9R
$$
  

Return to Home page


Western Regional Climate Center, wrcc@dri.edu